DWI4602 MDSD-MGGT

Flight info

Callsign DWI4602
Flight time 2h 38m
Altitude 36000
Route CDO W3 KANAM B520 DCR UL349 PESTO UZ894 PENRU UR644 AUR
Aircraft B38M/M-SDE1FGHILORVWXY/HB1

Departure

Time 2026-04-21 22:47
Airport Las Américas International Airport (MDSD)

Arrival

Time 2026-04-22 01:25
Airport La Aurora International Airport (MGGT)
Time Latitude Longitude Altitude Speed Heading
2026-04-21 22:27 18.42902 -69.67420 70 ft 0 kts 271°
2026-04-21 22:36 18.42902 -69.67398 67 ft 4 kts 271°
2026-04-21 22:37 18.42901 -69.67370 63 ft 4 kts 273°
2026-04-21 22:37 18.42897 -69.67343 62 ft 4 kts 301°
2026-04-21 22:37 18.42883 -69.67334 63 ft 1 kts
2026-04-21 22:37 18.42860 -69.67336 62 ft 2 kts
2026-04-21 22:38 18.42858 -69.67336 70 ft 2 kts
2026-04-21 22:42 18.42879 -69.67337 65 ft 6 kts 353°
2026-04-21 22:42 18.42943 -69.67352 68 ft 13 kts 343°
2026-04-21 22:42 18.43032 -69.67425 66 ft 18 kts 331°
2026-04-21 22:42 18.43142 -69.67471 64 ft 15 kts 341°
2026-04-21 22:43 18.43236 -69.67505 67 ft 13 kts 341°
2026-04-21 22:43 18.43314 -69.67532 65 ft 11 kts 342°
2026-04-21 22:43 18.43377 -69.67540 62 ft 10 kts 20°
2026-04-21 22:43 18.43452 -69.67532 66 ft 13 kts 342°
2026-04-21 22:44 18.43548 -69.67566 70 ft 16 kts 337°
2026-04-21 22:44 18.43657 -69.67612 71 ft 16 kts 340°
2026-04-21 22:44 18.43760 -69.67654 67 ft 15 kts 340°
2026-04-21 22:44 18.43857 -69.67693 66 ft 15 kts 339°
2026-04-21 22:45 18.43950 -69.67729 67 ft 14 kts 338°
2026-04-21 22:45 18.44041 -69.67767 69 ft 15 kts 339°
2026-04-21 22:45 18.44127 -69.67769 71 ft 10 kts 47°
2026-04-21 22:45 18.44155 -69.67698 64 ft 11 kts 70°
2026-04-21 22:46 18.44185 -69.67615 63 ft 13 kts 69°
2026-04-21 22:46 18.44187 -69.67538 66 ft 10 kts 135°
2026-04-21 22:46 18.44132 -69.67517 71 ft 18 kts 162°
2026-04-21 22:46 18.43741 -69.67374 71 ft 99 kts 161°
2026-04-21 22:47 18.42871 -69.67055 75 ft 163 kts 163°
2026-04-21 22:47 18.41675 -69.66629 483 ft 189 kts 162°
2026-04-21 22:47 18.40478 -69.66116 1595 ft 178 kts 153°
2026-04-21 22:47 18.39360 -69.65585 2494 ft 181 kts 155°
2026-04-21 22:48 18.38091 -69.65215 3070 ft 197 kts 177°
2026-04-21 22:48 18.36725 -69.65616 3604 ft 222 kts 211°
2026-04-21 22:48 18.35697 -69.66906 4202 ft 240 kts 249°
2026-04-21 22:48 18.35423 -69.68567 5330 ft 231 kts 265°
2026-04-21 22:49 18.35129 -69.70278 5983 ft 247 kts 255°
2026-04-21 22:49 18.34627 -69.72031 6815 ft 247 kts 252°
2026-04-21 22:49 18.34098 -69.73710 7824 ft 244 kts 253°
2026-04-21 22:49 18.33541 -69.75470 8236 ft 257 kts 253°
2026-04-21 22:50 18.33002 -69.77240 8347 ft 250 kts 259°
2026-04-21 22:50 18.32985 -69.79101 8738 ft 254 kts 279°
2026-04-21 22:50 18.33139 -69.80965 9639 ft 258 kts 276°
2026-04-21 22:50 18.33288 -69.82873 10183 ft 272 kts 277°
2026-04-21 22:51 18.33461 -69.84916 10645 ft 288 kts 277°
2026-04-21 22:51 18.33667 -69.87075 11119 ft 304 kts 277°
2026-04-21 22:51 18.33884 -69.89353 11509 ft 322 kts 277°
2026-04-21 22:51 18.34112 -69.91756 11952 ft 336 kts 277°
2026-04-21 22:52 18.34343 -69.94208 12721 ft 337 kts 277°
2026-04-21 22:52 18.34576 -69.96672 13465 ft 341 kts 277°
2026-04-21 22:52 18.34812 -69.99182 14121 ft 345 kts 277°
2026-04-21 22:52 18.35049 -70.01698 14746 ft 348 kts 277°
2026-04-21 22:53 18.35288 -70.04239 15373 ft 350 kts 277°
2026-04-21 22:53 18.35528 -70.06801 15984 ft 353 kts 277°
2026-04-21 22:53 18.35770 -70.09388 16569 ft 356 kts 277°
2026-04-21 22:53 18.36015 -70.12001 17144 ft 359 kts 277°
2026-04-21 22:54 18.36257 -70.14595 17709 ft 362 kts 277°
2026-04-21 22:54 18.36504 -70.17242 18254 ft 365 kts 277°
2026-04-21 22:54 18.36753 -70.19920 18721 ft 368 kts 277°
2026-04-21 22:54 18.37003 -70.22606 19209 ft 369 kts 277°
2026-04-21 22:55 18.37253 -70.25302 19686 ft 371 kts 277°
2026-04-21 22:55 18.37504 -70.28014 20140 ft 373 kts 277°
2026-04-21 22:55 18.37757 -70.30739 20607 ft 375 kts 277°
2026-04-21 22:55 18.38010 -70.33481 21071 ft 377 kts 276°
2026-04-21 22:56 18.38265 -70.36249 21534 ft 379 kts 277°
2026-04-21 22:56 18.38517 -70.38979 21971 ft 382 kts 277°
2026-04-21 22:56 18.38774 -70.41778 22423 ft 384 kts 277°
2026-04-21 22:56 18.39031 -70.44579 22886 ft 386 kts 277°
2026-04-21 22:57 18.39290 -70.47399 23338 ft 388 kts 277°
2026-04-21 22:57 18.39550 -70.50241 23736 ft 391 kts 277°
2026-04-21 22:57 18.39810 -70.53093 24140 ft 392 kts 277°
2026-04-21 22:57 18.40071 -70.55952 24537 ft 393 kts 277°
2026-04-21 22:58 18.40333 -70.58826 24930 ft 395 kts 277°
2026-04-21 22:58 18.40595 -70.61711 25318 ft 397 kts 277°
2026-04-21 22:58 18.40859 -70.64614 25701 ft 399 kts 277°
2026-04-21 22:58 18.41122 -70.67523 26074 ft 400 kts 277°
2026-04-21 22:59 18.41386 -70.70444 26453 ft 402 kts 277°
2026-04-21 22:59 18.41652 -70.73389 26828 ft 404 kts 277°
2026-04-21 22:59 18.41914 -70.76301 27183 ft 406 kts 277°
2026-04-21 22:59 18.42180 -70.79259 27541 ft 408 kts 277°
2026-04-21 23:00 18.42452 -70.82281 27896 ft 409 kts 277°
2026-04-21 23:00 18.42717 -70.85233 28233 ft 411 kts 277°
2026-04-21 23:00 18.42985 -70.88238 28564 ft 413 kts 277°
2026-04-21 23:00 18.43255 -70.91262 28903 ft 415 kts 277°
2026-04-21 23:01 18.43526 -70.94302 29234 ft 417 kts 277°
2026-04-21 23:01 18.43797 -70.97350 29561 ft 418 kts 277°
2026-04-21 23:01 18.44068 -71.00393 29917 ft 420 kts 277°
2026-04-21 23:01 18.44341 -71.03468 30212 ft 421 kts 277°
2026-04-21 23:02 18.44612 -71.06542 30465 ft 423 kts 277°
2026-04-21 23:02 18.44886 -71.09640 30737 ft 425 kts 277°
2026-04-21 23:02 18.45159 -71.12743 31020 ft 426 kts 277°
2026-04-21 23:02 18.45434 -71.15859 31286 ft 428 kts 277°
2026-04-21 23:03 18.45706 -71.18957 31557 ft 429 kts 277°
2026-04-21 23:03 18.45981 -71.22096 31835 ft 430 kts 277°
2026-04-21 23:03 18.46256 -71.25236 32091 ft 432 kts 276°
2026-04-21 23:03 18.46532 -71.28399 32349 ft 433 kts 276°
2026-04-21 23:04 18.46808 -71.31563 32683 ft 433 kts 276°
2026-04-21 23:04 18.47083 -71.34717 33056 ft 431 kts 276°
2026-04-21 23:04 18.47352 -71.37827 33438 ft 430 kts 276°
2026-04-21 23:04 18.47624 -71.40962 33831 ft 428 kts 276°
2026-04-21 23:05 18.47898 -71.44120 34190 ft 426 kts 276°
2026-04-21 23:05 18.48162 -71.47181 34518 ft 425 kts 276°
2026-04-21 23:05 18.48427 -71.50253 34832 ft 423 kts 276°
2026-04-21 23:05 18.48694 -71.53357 35131 ft 422 kts 276°
2026-04-21 23:06 18.48958 -71.56439 35410 ft 421 kts 276°
2026-04-21 23:06 18.49221 -71.59502 35680 ft 420 kts 276°
2026-04-21 23:06 18.49395 -71.61536 35848 ft 420 kts 276°
2026-04-21 23:06 18.49746 -71.65651 35976 ft 419 kts 276°
2026-04-21 23:07 18.50262 -71.71710 35982 ft 417 kts 276°
2026-04-21 23:07 18.50778 -71.77799 35981 ft 417 kts 276°
2026-04-21 23:08 18.51206 -71.82865 35982 ft 417 kts 276°
2026-04-21 23:08 18.51045 -71.88949 35981 ft 419 kts 255°
2026-04-21 23:09 18.48820 -71.94686 35984 ft 425 kts 249°
2026-04-21 23:09 18.46409 -72.00372 35983 ft 425 kts 249°
2026-04-21 23:10 18.43952 -72.06032 35994 ft 425 kts 248°
2026-04-21 23:10 18.41479 -72.11696 35996 ft 425 kts 248°
2026-04-21 23:11 18.39010 -72.17344 36000 ft 425 kts 248°
2026-04-21 23:11 18.36532 -72.23008 35992 ft 426 kts 248°
2026-04-21 23:12 18.34072 -72.28626 36004 ft 425 kts 248°
2026-04-21 23:12 18.31578 -72.34314 35986 ft 425 kts 248°
2026-04-21 23:13 18.29097 -72.39969 35995 ft 425 kts 248°
2026-04-21 23:13 18.26631 -72.45583 35996 ft 425 kts 248°
2026-04-21 23:14 18.24147 -72.51233 35995 ft 426 kts 248°
2026-04-21 23:14 18.21659 -72.56887 35990 ft 425 kts 248°
2026-04-21 23:15 18.19169 -72.62540 36000 ft 426 kts 248°
2026-04-21 23:15 18.16678 -72.68189 35996 ft 426 kts 248°
2026-04-21 23:16 18.14183 -72.73843 35998 ft 426 kts 248°
2026-04-21 23:16 18.11688 -72.79490 36000 ft 426 kts 248°
2026-04-21 23:17 18.09189 -72.85144 35999 ft 426 kts 248°
2026-04-21 23:17 18.06702 -72.90762 36004 ft 426 kts 248°
2026-04-21 23:18 18.04202 -72.96405 36006 ft 426 kts 248°
2026-04-21 23:18 18.01693 -73.02065 36010 ft 426 kts 248°
2026-04-21 23:19 17.99191 -73.07703 36005 ft 426 kts 248°
2026-04-21 23:19 17.96692 -73.13327 36006 ft 426 kts 247°
2026-04-21 23:20 17.94179 -73.18979 36007 ft 427 kts 247°
2026-04-21 23:20 17.91668 -73.24623 36002 ft 427 kts 247°
2026-04-21 23:21 17.89153 -73.30271 36003 ft 427 kts 248°
2026-04-21 23:21 17.88218 -73.33204 35989 ft 421 kts 263°
2026-04-21 23:21 17.87979 -73.36258 36006 ft 422 kts 267°
2026-04-21 23:22 17.87662 -73.42415 36004 ft 422 kts 268°
2026-04-21 23:22 17.87418 -73.48539 36004 ft 422 kts 268°
2026-04-21 23:23 17.87193 -73.54706 36004 ft 422 kts 268°
2026-04-21 23:23 17.86968 -73.60875 36005 ft 422 kts 268°
2026-04-21 23:24 17.86741 -73.67039 36005 ft 423 kts 268°
2026-04-21 23:24 17.86512 -73.73209 36007 ft 423 kts 268°
2026-04-21 23:25 17.86282 -73.79367 36006 ft 423 kts 268°
2026-04-21 23:25 17.86050 -73.85536 36007 ft 423 kts 268°
2026-04-21 23:26 17.85815 -73.91699 36006 ft 423 kts 268°
2026-04-21 23:26 17.85579 -73.97875 36002 ft 423 kts 268°
2026-04-21 23:27 17.85342 -74.03994 36005 ft 423 kts 268°
2026-04-21 23:27 17.85102 -74.10176 36005 ft 423 kts 268°
2026-04-21 23:28 17.84954 -74.16336 36004 ft 422 kts 269°
2026-04-21 23:28 17.84857 -74.22476 36007 ft 422 kts 269°
2026-04-21 23:29 17.84752 -74.28649 36007 ft 422 kts 269°
2026-04-21 23:29 17.84645 -74.34808 36006 ft 422 kts 269°
2026-04-21 23:30 17.84536 -74.40976 36005 ft 422 kts 269°
2026-04-21 23:30 17.84424 -74.47141 36005 ft 422 kts 269°
2026-04-21 23:31 17.84311 -74.53299 36008 ft 422 kts 269°
2026-04-21 23:31 17.84196 -74.59470 36006 ft 422 kts 269°
2026-04-21 23:32 17.84080 -74.65629 36007 ft 422 kts 269°
2026-04-21 23:32 17.83967 -74.71806 36008 ft 422 kts 269°
2026-04-21 23:33 17.83853 -74.77922 36007 ft 422 kts 269°
2026-04-21 23:33 17.83737 -74.84087 36007 ft 422 kts 269°
2026-04-21 23:34 17.83618 -74.90254 36004 ft 422 kts 269°
2026-04-21 23:34 17.83498 -74.96415 36005 ft 422 kts 269°
2026-04-21 23:35 17.83375 -75.02589 36006 ft 422 kts 269°
2026-04-21 23:35 17.83251 -75.08743 36029 ft 421 kts 269°
2026-04-21 23:36 17.83126 -75.14871 36014 ft 419 kts 269°
2026-04-21 23:36 17.82999 -75.20949 36013 ft 419 kts 269°
2026-04-21 23:37 17.82871 -75.27062 36011 ft 419 kts 269°
2026-04-21 23:37 17.82740 -75.33186 36011 ft 419 kts 269°
2026-04-21 23:38 17.82607 -75.39306 36012 ft 419 kts 269°
2026-04-21 23:38 17.82472 -75.45420 36011 ft 419 kts 269°
2026-04-21 23:39 17.82336 -75.51535 36013 ft 419 kts 269°
2026-04-21 23:39 17.82197 -75.57658 36013 ft 419 kts 269°
2026-04-21 23:40 17.82057 -75.63787 36010 ft 419 kts 269°
2026-04-21 23:40 17.81915 -75.69867 36012 ft 420 kts 269°
2026-04-21 23:41 17.81771 -75.75987 36010 ft 420 kts 269°
2026-04-21 23:41 17.81624 -75.82117 36017 ft 420 kts 269°
2026-04-21 23:42 17.81477 -75.88233 36015 ft 420 kts 269°
2026-04-21 23:42 17.81327 -75.94357 36018 ft 420 kts 268°
2026-04-21 23:43 17.81173 -76.00479 36013 ft 420 kts 268°
2026-04-21 23:43 17.81017 -76.06611 36015 ft 420 kts 268°
2026-04-21 23:44 17.80861 -76.12713 36011 ft 420 kts 268°
2026-04-21 23:44 17.80702 -76.18844 36014 ft 420 kts 268°
2026-04-21 23:45 17.80459 -76.28037 36008 ft 420 kts 268°
2026-04-21 23:46 17.80323 -76.33136 36008 ft 420 kts 268°
2026-04-21 23:46 17.80157 -76.39267 36007 ft 420 kts 268°
2026-04-21 23:47 17.79961 -76.46443 36000 ft 420 kts 268°
2026-04-21 23:47 17.79791 -76.52583 35997 ft 421 kts 268°
2026-04-21 23:48 17.79619 -76.58715 35997 ft 421 kts 268°
2026-04-21 23:48 17.79475 -76.63811 35994 ft 421 kts 268°
2026-04-21 23:49 17.79270 -76.70989 35994 ft 421 kts 268°
2026-04-21 23:49 17.79122 -76.76102 35993 ft 421 kts 268°
2026-04-21 23:50 17.78943 -76.82238 35996 ft 421 kts 268°
2026-04-21 23:50 17.78733 -76.89362 35991 ft 421 kts 268°
2026-04-21 23:51 17.78579 -76.94511 35993 ft 421 kts 268°
2026-04-21 23:51 17.78364 -77.01645 35993 ft 421 kts 268°
2026-04-21 23:52 17.78208 -77.06749 35999 ft 421 kts 268°
2026-04-21 23:52 17.78018 -77.12895 36003 ft 421 kts 268°
2026-04-21 23:53 17.77797 -77.20029 36008 ft 421 kts 268°
2026-04-21 23:53 17.77603 -77.26175 36009 ft 421 kts 268°
2026-04-21 23:54 17.77408 -77.32321 36011 ft 421 kts 268°
2026-04-21 23:54 17.77211 -77.38465 36016 ft 421 kts 268°
2026-04-21 23:55 17.77012 -77.44607 36018 ft 421 kts 268°
2026-04-21 23:55 17.76845 -77.49723 36018 ft 421 kts 268°
2026-04-21 23:56 17.76642 -77.55865 36021 ft 422 kts 268°
2026-04-21 23:56 17.76404 -77.63026 36019 ft 422 kts 268°
2026-04-21 23:57 17.76231 -77.68175 36023 ft 422 kts 268°
2026-04-21 23:57 17.76022 -77.74330 36032 ft 422 kts 268°
2026-04-21 23:58 17.75812 -77.80486 36021 ft 422 kts 268°
2026-04-21 23:58 17.75602 -77.86589 36020 ft 422 kts 268°
2026-04-21 23:59 17.75386 -77.92748 36019 ft 422 kts 268°
2026-04-21 23:59 17.75170 -77.98907 36021 ft 422 kts 268°
2026-04-22 00:00 17.74952 -78.05070 36019 ft 422 kts 268°
2026-04-22 00:00 17.74734 -78.11183 36016 ft 422 kts 268°
2026-04-22 00:01 17.74512 -78.17363 36016 ft 422 kts 268°
2026-04-22 00:01 17.74288 -78.23517 36013 ft 422 kts 268°
2026-04-22 00:02 17.74064 -78.29627 36029 ft 421 kts 268°
2026-04-22 00:02 17.73838 -78.35767 36021 ft 422 kts 268°
2026-04-22 00:03 17.73608 -78.41922 36020 ft 422 kts 268°
2026-04-22 00:03 17.73377 -78.48066 36021 ft 422 kts 268°
2026-04-22 00:04 17.73144 -78.54229 36032 ft 422 kts 268°
2026-04-22 00:04 17.72909 -78.60384 36020 ft 422 kts 268°
2026-04-22 00:05 17.72673 -78.66529 36015 ft 422 kts 268°
2026-04-22 00:05 17.72434 -78.72682 36017 ft 422 kts 268°
2026-04-22 00:06 17.72194 -78.78799 36018 ft 422 kts 268°
2026-04-22 00:06 17.71952 -78.84950 36016 ft 422 kts 268°
2026-04-22 00:07 17.71707 -78.91110 36024 ft 422 kts 268°
2026-04-22 00:07 17.71461 -78.97261 36018 ft 422 kts 268°
2026-04-22 00:08 17.71211 -79.03425 36018 ft 422 kts 268°
2026-04-22 00:08 17.70961 -79.09575 36017 ft 422 kts 268°
2026-04-22 00:09 17.70709 -79.15733 36032 ft 422 kts 268°
2026-04-22 00:09 17.70456 -79.21884 36018 ft 423 kts 268°
2026-04-22 00:10 17.70197 -79.28050 36026 ft 423 kts 268°
2026-04-22 00:10 17.69938 -79.34203 36016 ft 423 kts 268°
2026-04-22 00:11 17.69677 -79.40366 36016 ft 423 kts 268°
2026-04-22 00:11 17.69415 -79.46497 36026 ft 423 kts 268°
2026-04-22 00:12 17.69149 -79.52659 36017 ft 423 kts 268°
2026-04-22 00:12 17.68883 -79.58811 36028 ft 423 kts 268°
2026-04-22 00:13 17.68614 -79.64970 36016 ft 423 kts 268°
2026-04-22 00:13 17.68342 -79.71155 36017 ft 423 kts 268°
2026-04-22 00:14 17.68069 -79.77316 36017 ft 423 kts 268°
2026-04-22 00:14 17.67794 -79.83487 36016 ft 423 kts 268°
2026-04-22 00:15 17.67519 -79.89616 36014 ft 424 kts 268°
2026-04-22 00:15 17.67239 -79.95798 36027 ft 424 kts 268°
2026-04-22 00:16 17.66958 -80.01964 36020 ft 424 kts 268°
2026-04-22 00:16 17.66675 -80.08147 36020 ft 424 kts 268°
2026-04-22 00:17 17.66390 -80.14318 36035 ft 424 kts 268°
2026-04-22 00:17 17.66103 -80.20490 36022 ft 424 kts 268°
2026-04-22 00:18 17.65814 -80.26666 36035 ft 424 kts 268°
2026-04-22 00:18 17.65523 -80.32846 36025 ft 424 kts 267°
2026-04-22 00:19 17.65231 -80.38995 36023 ft 424 kts 267°
2026-04-22 00:19 17.64936 -80.45189 36035 ft 424 kts 267°
2026-04-22 00:20 17.64639 -80.51373 36026 ft 425 kts 267°
2026-04-22 00:20 17.64340 -80.57556 36025 ft 425 kts 267°
2026-04-22 00:21 17.64041 -80.63709 36024 ft 425 kts 267°
2026-04-22 00:21 17.63738 -80.69902 36035 ft 425 kts 267°
2026-04-22 00:22 17.63419 -80.76074 36033 ft 425 kts 267°
2026-04-22 00:22 17.63089 -80.82276 36032 ft 425 kts 267°
2026-04-22 00:23 17.62759 -80.88462 36027 ft 425 kts 267°
2026-04-22 00:23 17.62427 -80.94646 36032 ft 425 kts 267°
2026-04-22 00:24 17.62092 -81.00840 36028 ft 425 kts 267°
2026-04-22 00:24 17.61758 -81.06997 36027 ft 425 kts 267°
2026-04-22 00:25 17.61420 -81.13189 36028 ft 425 kts 267°
2026-04-22 00:25 17.61079 -81.19386 36037 ft 426 kts 267°
2026-04-22 00:26 17.60736 -81.25590 36028 ft 426 kts 267°
2026-04-22 00:26 17.60393 -81.31775 36027 ft 426 kts 267°
2026-04-22 00:27 17.60046 -81.37980 36029 ft 426 kts 267°
2026-04-22 00:27 17.59697 -81.44186 36029 ft 426 kts 267°
2026-04-22 00:28 17.59347 -81.50378 36034 ft 426 kts 267°
2026-04-22 00:28 17.58997 -81.56544 36033 ft 426 kts 267°
2026-04-22 00:29 17.58563 -81.64210 36044 ft 426 kts 267°
2026-04-22 00:29 17.57810 -81.76612 36039 ft 426 kts 266°
2026-04-22 00:30 17.57148 -81.88388 36032 ft 426 kts 267°
2026-04-22 00:30 17.56791 -81.94604 36034 ft 426 kts 266°
2026-04-22 00:31 17.56426 -82.00811 36042 ft 426 kts 266°
2026-04-22 00:31 17.55518 -82.06878 36042 ft 426 kts 251°
2026-04-22 00:32 17.53459 -82.13207 36042 ft 428 kts 252°
2026-04-22 00:32 17.49538 -82.25008 36042 ft 429 kts 252°
2026-04-22 00:33 17.45571 -82.36763 36040 ft 429 kts 252°
2026-04-22 00:33 17.41613 -82.48587 36040 ft 429 kts 251°
2026-04-22 00:34 17.37656 -82.60310 36028 ft 429 kts 252°
2026-04-22 00:34 17.33667 -82.72105 36030 ft 430 kts 252°
2026-04-22 00:35 17.29696 -82.83905 36032 ft 430 kts 252°
2026-04-22 00:35 17.25709 -82.95696 36034 ft 430 kts 251°
2026-04-22 00:36 17.21722 -83.07492 36029 ft 430 kts 252°
2026-04-22 00:36 17.17674 -83.19307 36031 ft 430 kts 252°
2026-04-22 00:37 17.13653 -83.31018 36029 ft 431 kts 251°
2026-04-22 00:37 17.09657 -83.42826 36033 ft 431 kts 251°
2026-04-22 00:38 17.05599 -83.54626 36033 ft 431 kts 250°
2026-04-22 00:38 17.02562 -83.63460 36033 ft 431 kts 252°
2026-04-22 00:39 16.98503 -83.75289 36036 ft 432 kts 251°
2026-04-22 00:39 16.94426 -83.87038 36032 ft 432 kts 251°
2026-04-22 00:40 16.90368 -83.98839 36036 ft 433 kts 251°
2026-04-22 00:40 16.86944 -84.08683 36033 ft 433 kts 250°
2026-04-22 00:41 16.83225 -84.19503 36036 ft 434 kts 251°
2026-04-22 00:41 16.79123 -84.31338 36035 ft 434 kts 250°
2026-04-22 00:42 16.75000 -84.43116 36034 ft 434 kts 251°
2026-04-22 00:42 16.70900 -84.54979 36035 ft 434 kts 250°
2026-04-22 00:43 16.67421 -84.64819 36034 ft 435 kts 250°
2026-04-22 00:43 16.63283 -84.76682 36038 ft 435 kts 251°
2026-04-22 00:44 16.59124 -84.88517 36035 ft 435 kts 251°
2026-04-22 00:44 16.54995 -85.00314 36037 ft 435 kts 251°
2026-04-22 00:45 16.50802 -85.12142 36040 ft 435 kts 250°
2026-04-22 00:45 16.46630 -85.23990 36039 ft 435 kts 251°
2026-04-22 00:46 16.42474 -85.35829 36041 ft 435 kts 251°
2026-04-22 00:46 16.38258 -85.47670 36043 ft 436 kts 250°
2026-04-22 00:47 16.34024 -85.59495 36040 ft 436 kts 251°
2026-04-22 00:47 16.29858 -85.71344 36039 ft 436 kts 250°
2026-04-22 00:48 16.25646 -85.83195 36041 ft 436 kts 250°
2026-04-22 00:48 16.21402 -85.94937 36040 ft 436 kts 250°
2026-04-22 00:49 16.17164 -86.06814 36041 ft 436 kts 250°
2026-04-22 00:49 16.12906 -86.18638 36032 ft 437 kts 251°
2026-04-22 00:50 16.08648 -86.30494 36027 ft 437 kts 250°
2026-04-22 00:50 16.04422 -86.42216 36021 ft 437 kts 250°
2026-04-22 00:51 16.00152 -86.54110 36023 ft 438 kts 250°
2026-04-22 00:51 15.95863 -86.65941 36021 ft 438 kts 249°
2026-04-22 00:52 15.91575 -86.77805 36017 ft 438 kts 249°
2026-04-22 00:52 15.87275 -86.89668 36019 ft 438 kts 250°
2026-04-22 00:53 15.82998 -87.01507 36021 ft 438 kts 249°
2026-04-22 00:53 15.78648 -87.13355 36026 ft 438 kts 249°
2026-04-22 00:54 15.74354 -87.25219 36042 ft 439 kts 250°
2026-04-22 00:54 15.70042 -87.36993 36047 ft 438 kts 249°
2026-04-22 00:55 15.65665 -87.48823 36042 ft 439 kts 249°
2026-04-22 00:55 15.59172 -87.66609 36038 ft 439 kts 249°
2026-04-22 00:56 15.54783 -87.78423 36013 ft 440 kts 249°
2026-04-22 00:56 15.50425 -87.90300 36004 ft 440 kts 249°
2026-04-22 00:57 15.46050 -88.02143 36005 ft 440 kts 250°
2026-04-22 00:57 15.41661 -88.13988 36014 ft 440 kts 250°
2026-04-22 00:58 15.38158 -88.23345 36029 ft 440 kts 250°
2026-04-22 00:58 15.35989 -88.29279 36040 ft 440 kts 249°
2026-04-22 00:59 15.33798 -88.35187 36048 ft 440 kts 249°
2026-04-22 00:59 15.31591 -88.41124 36053 ft 440 kts 249°
2026-04-22 01:00 15.29387 -88.47048 36060 ft 441 kts 249°
2026-04-22 01:00 15.27180 -88.52973 36067 ft 441 kts 249°
2026-04-22 01:01 15.24970 -88.58903 36073 ft 441 kts 249°
2026-04-22 01:01 15.22759 -88.64829 36077 ft 441 kts 249°
2026-04-22 01:02 15.20558 -88.70724 36090 ft 442 kts 249°
2026-04-22 01:02 15.18439 -88.76688 36094 ft 441 kts 250°
2026-04-22 01:03 15.16381 -88.82587 35793 ft 427 kts 250°
2026-04-22 01:03 15.15374 -88.85466 35566 ft 423 kts 250°
2026-04-22 01:03 15.14374 -88.88325 35339 ft 421 kts 250°
2026-04-22 01:04 15.13380 -88.91163 35117 ft 419 kts 250°
2026-04-22 01:04 15.12399 -88.93968 34898 ft 418 kts 250°
2026-04-22 01:04 15.11409 -88.96791 34685 ft 417 kts 250°
2026-04-22 01:04 15.10421 -88.99611 34461 ft 415 kts 250°
2026-04-22 01:05 15.09438 -89.02414 34244 ft 414 kts 250°
2026-04-22 01:05 15.08456 -89.05214 34015 ft 413 kts 250°
2026-04-22 01:05 15.07477 -89.08001 33770 ft 412 kts 250°
2026-04-22 01:05 15.06502 -89.10776 33514 ft 409 kts 250°
2026-04-22 01:06 15.05535 -89.13530 33029 ft 407 kts 250°
2026-04-22 01:06 15.04561 -89.16300 32367 ft 409 kts 250°
2026-04-22 01:06 15.03592 -89.19057 31845 ft 408 kts 250°
2026-04-22 01:06 15.02631 -89.21813 31379 ft 405 kts 250°
2026-04-22 01:07 15.01697 -89.24550 30850 ft 405 kts 250°
2026-04-22 01:07 15.00756 -89.27295 30382 ft 403 kts 250°
2026-04-22 01:07 14.99822 -89.30019 29865 ft 401 kts 250°
2026-04-22 01:07 14.98891 -89.32732 29321 ft 399 kts 250°
2026-04-22 01:08 14.97965 -89.35433 28836 ft 396 kts 250°
2026-04-22 01:08 14.97060 -89.38068 28374 ft 393 kts 250°
2026-04-22 01:08 14.96148 -89.40722 27833 ft 392 kts 250°
2026-04-22 01:08 14.95235 -89.43381 27351 ft 390 kts 250°
2026-04-22 01:09 14.94333 -89.46006 26905 ft 387 kts 250°
2026-04-22 01:09 14.93429 -89.48634 26448 ft 385 kts 250°
2026-04-22 01:09 14.92535 -89.51236 25988 ft 384 kts 250°
2026-04-22 01:09 14.91641 -89.53835 25517 ft 383 kts 250°
2026-04-22 01:10 14.90748 -89.56427 25057 ft 382 kts 250°
2026-04-22 01:10 14.89860 -89.59007 24597 ft 381 kts 250°
2026-04-22 01:10 14.88971 -89.61588 24129 ft 381 kts 250°
2026-04-22 01:10 14.88080 -89.64172 23653 ft 381 kts 250°
2026-04-22 01:11 14.87190 -89.66755 23109 ft 381 kts 250°
2026-04-22 01:11 14.86315 -89.69289 22632 ft 379 kts 250°
2026-04-22 01:11 14.85431 -89.71854 22169 ft 377 kts 250°
2026-04-22 01:11 14.84550 -89.74404 21706 ft 375 kts 250°
2026-04-22 01:12 14.83678 -89.76930 21254 ft 374 kts 250°
2026-04-22 01:12 14.82802 -89.79465 20785 ft 372 kts 250°
2026-04-22 01:12 14.81930 -89.81987 20325 ft 371 kts 250°
2026-04-22 01:12 14.81064 -89.84493 19868 ft 370 kts 250°
2026-04-22 01:13 14.80198 -89.86998 19407 ft 369 kts 250°
2026-04-22 01:13 14.79334 -89.89497 18943 ft 369 kts 250°
2026-04-22 01:13 14.78471 -89.91990 18481 ft 368 kts 250°
2026-04-22 01:13 14.77615 -89.94465 18042 ft 365 kts 250°
2026-04-22 01:14 14.76764 -89.96921 17615 ft 361 kts 250°
2026-04-22 01:14 14.75929 -89.99332 17204 ft 358 kts 250°
2026-04-22 01:14 14.75096 -90.01738 16794 ft 355 kts 250°
2026-04-22 01:14 14.74270 -90.04122 16387 ft 352 kts 249°
2026-04-22 01:15 14.73449 -90.06493 15930 ft 350 kts 249°
2026-04-22 01:15 14.72621 -90.08878 15391 ft 352 kts 250°
2026-04-22 01:15 14.71799 -90.11249 14950 ft 351 kts 249°
2026-04-22 01:15 14.70974 -90.13627 14512 ft 350 kts 249°
2026-04-22 01:16 14.70156 -90.15982 14095 ft 348 kts 249°
2026-04-22 01:16 14.69342 -90.18327 13645 ft 346 kts 249°
2026-04-22 01:16 14.68530 -90.20664 13210 ft 343 kts 250°
2026-04-22 01:16 14.67729 -90.22971 12802 ft 341 kts 250°
2026-04-22 01:17 14.66931 -90.25264 12398 ft 338 kts 250°
2026-04-22 01:17 14.66142 -90.27535 11999 ft 335 kts 250°
2026-04-22 01:17 14.65355 -90.29797 11599 ft 333 kts 250°
2026-04-22 01:17 14.64573 -90.32044 11180 ft 331 kts 251°
2026-04-22 01:18 14.63798 -90.34268 10788 ft 329 kts 251°
2026-04-22 01:18 14.63026 -90.36487 10394 ft 328 kts 251°
2026-04-22 01:18 14.62261 -90.38681 10155 ft 320 kts 251°
2026-04-22 01:18 14.61519 -90.40811 9967 ft 311 kts 251°
2026-04-22 01:19 14.60799 -90.42875 9783 ft 301 kts 251°
2026-04-22 01:19 14.60108 -90.44856 9606 ft 293 kts 251°
2026-04-22 01:19 14.59421 -90.46823 9423 ft 283 kts 251°
2026-04-22 01:19 14.58772 -90.48687 9260 ft 274 kts 251°
2026-04-22 01:20 14.58134 -90.50515 9087 ft 266 kts 250°
2026-04-22 01:20 14.57212 -90.52131 8801 ft 262 kts 221°
2026-04-22 01:20 14.55591 -90.52908 8427 ft 258 kts 182°
2026-04-22 01:20 14.53869 -90.52577 8115 ft 251 kts 158°
2026-04-22 01:21 14.52225 -90.52072 7848 ft 248 kts 163°
2026-04-22 01:21 14.50564 -90.51627 7552 ft 245 kts 163°
2026-04-22 01:21 14.48925 -90.51206 7288 ft 241 kts 168°
2026-04-22 01:21 14.47813 -90.51187 7159 ft 239 kts 192°
2026-04-22 01:22 14.46249 -90.52508 7018 ft 213 kts 251°
2026-04-22 01:22 14.46264 -90.53923 6923 ft 191 kts 291°
2026-04-22 01:22 14.46814 -90.55161 6632 ft 192 kts 313°
2026-04-22 01:22 14.47879 -90.55809 6448 ft 168 kts 357°
2026-04-22 01:23 14.49037 -90.55730 6608 ft 171 kts 13°
2026-04-22 01:23 14.50161 -90.55409 6385 ft 163 kts 21°
2026-04-22 01:23 14.51216 -90.55045 6163 ft 161 kts 20°
2026-04-22 01:23 14.52269 -90.54681 5891 ft 157 kts 22°
2026-04-22 01:24 14.53288 -90.54350 5615 ft 151 kts 18°
2026-04-22 01:24 14.54296 -90.54025 5513 ft 149 kts 15°
2026-04-22 01:24 14.55302 -90.53705 5292 ft 152 kts 17°
2026-04-22 01:24 14.56334 -90.53385 5084 ft 158 kts 17°
2026-04-22 01:25 14.57362 -90.53068 4941 ft 143 kts 18°
2026-04-22 01:25 14.58207 -90.52787 4954 ft 112 kts 17°
2026-04-22 01:25 14.58812 -90.52594 4964 ft 68 kts 17°
2026-04-22 01:25 14.59110 -90.52497 4978 ft 33 kts 18°
2026-04-22 01:26 14.59206 -90.52493 4978 ft 2 kts 296°
2026-04-22 01:26 14.59210 -90.52518 4978 ft 4 kts 270°
2026-04-22 01:26 14.59186 -90.52543 4976 ft 6 kts 195°
2026-04-22 01:26 14.59133 -90.52558 4976 ft 10 kts 197°
2026-04-22 01:27 14.59054 -90.52582 4972 ft 14 kts 196°
2026-04-22 01:27 14.58945 -90.52618 4968 ft 19 kts 200°
2026-04-22 01:27 14.58829 -90.52657 4964 ft 14 kts 197°
2026-04-22 01:27 14.58781 -90.52701 4963 ft 5 kts 272°
2026-04-22 01:28 14.58788 -90.52723 4963 ft 6 kts 297°
2026-04-22 01:28 14.58825 -90.52763 4963 ft 10 kts 328°
2026-04-22 01:28 14.58900 -90.52780 4963 ft 14 kts 12°
2026-04-22 01:28 14.59003 -90.52748 4961 ft 17 kts 19°
2026-04-22 01:29 14.59159 -90.52699 4961 ft 15 kts
2026-04-22 01:29 14.59210 -90.52760 4961 ft 11 kts 289°
2026-04-22 01:29 14.59225 -90.52806 4963 ft 9 kts 287°
2026-04-22 01:29 14.59241 -90.52862 4963 ft 8 kts 281°
2026-04-22 01:30 14.59225 -90.52925 4963 ft 11 kts 234°
2026-04-22 01:30 14.59166 -90.52960 4963 ft 9 kts 197°
2026-04-22 01:30 14.59129 -90.52964 4963 ft 2 kts 152°
2026-04-22 01:30 14.59124 -90.52958 4963 ft 0 kts 119°
2026-04-22 01:31 14.59119 -90.52944 4963 ft 4 kts 108°
2026-04-22 01:31 14.59115 -90.52930 4964 ft 0 kts 107°
2026-04-22 01:31 14.59115 -90.52929 4964 ft 1 kts 107°
2026-04-22 01:32 14.59111 -90.52916 4964 ft 1 kts 106°
2026-04-22 01:32 14.59111 -90.52915 4964 ft 0 kts 106°